logo
App data

Munin

Imagine you could move mountains - literally! With realistic physics, Norse runes, rotating platforms and a lot of gray cells you'll help Munin, Odin's messenger in her very own 2D-adventure, to reclaim her power on a journey through Yggdrasil.
Store | Hub | SteamDB
Developer: Gojira Publisher: Daedalic Entertainment
Genre: Adventure, Casual, Indie
Languages: English, French, Italian, German, Spanish - Spain, Portuguese, Portuguese - Brazil, Russian, Polish, Turkish
Tags: Indie (67), Casual (66), Puzzle-Platformer (65), Puzzle (54), Adventure (53), Platformer (51), Female Protagonist (29), 2D (25), 2D Platformer (25), Physics (16), Difficult (14), Atmospheric (13), Hand-drawn (13), Singleplayer (12), Logic (12), Surreal (12), Abstract (11), Dark (11), Mythology (11), Beautiful (10)
Category: Single-player, Steam Achievements, Full controller support, Steam Trading Cards, Steam Cloud
Release date: Jun 10, 2014
Price: $0.54 89%
Old userscore: 82% Metascore: 68%
Owners: 200,000 .. 500,000
Followers: 1,851
Peak concurrent players yesterday: 7
YouTube stats: 51,746 views and 132 comments for top 50 videos uploaded last week, 0 new videos uploaded yesterday.
Playtime total: 05:26 (average) 07:18 (median)

Steam Spy is still in beta, so expect major bugs.

Owners data:

Access restricted.

This feature is only available to users with special access rights. Sorry.

If you want to proceed, you need to register or log in first and then back Steam Spy on Patreon. Look for Indie or Pro pledge.

Don't forget to use the same email as on Steam Spy!

If you've recently backed Steam Spy on Patreon, please note, that it might take around 15 minutes for your access rights to sync. In most cases you'll need to re-login on Steam Spy too.

Audience in 2 weeks:

Access restricted.

This feature is only available to users with special access rights. Sorry.

If you want to proceed, you need to register or log in first and then back Steam Spy on Patreon. Look for Indie or Pro pledge.

Don't forget to use the same email as on Steam Spy!

If you've recently backed Steam Spy on Patreon, please note, that it might take around 15 minutes for your access rights to sync. In most cases you'll need to re-login on Steam Spy too.

Peak daily concurrent players:

CCU data courtesy of SteamDB. Used with permission.

Hourly concurrent players:

Daily Twitch stats:

Hourly Twitch stats:

Followers over time

Access restricted.

This feature is only available to users with special access rights. Sorry.

If you want to proceed, you need to register or log in first and then back Steam Spy on Patreon. Look for Indie or Pro pledge.

Don't forget to use the same email as on Steam Spy!

If you've recently backed Steam Spy on Patreon, please note, that it might take around 15 minutes for your access rights to sync. In most cases you'll need to re-login on Steam Spy too.

Views for top 50 videos on YouTube for this game:

Games similar to this one:

# Game Release date
Price
Score rank
(Userscore / Metascore)
Owners
Players
Playtime (Median)
1 BIT.TRIP BEAT Nov 2, 2010 $4.19N/A (N/A)200,000 .. 500,0000%00:00 (00:00)
2 Super Splatters Jun 26, 2013 N/AN/A (N/A/73%)50,000 .. 100,0000%00:00 (00:00)
3 Titan Attacks! Feb 3, 2012 $3.24N/A (N/A)50,000 .. 100,0000%00:00 (00:00)
4 BIT.TRIP CORE Oct 2, 2012 $6.99N/A (N/A)50,000 .. 100,0000%00:00 (00:00)
5 BIT.TRIP VOID Dec 19, 2012 $6.99N/A (N/A)20,000 .. 50,0000%00:00 (00:00)
6 Tales From Space: Mutant Blobs Attack Aug 15, 2012 $2.49N/A (N/A/83%)100,000 .. 200,0000%00:00 (00:00)
7 All Zombies Must Die!: Scorepocalypse Apr 19, 2012 $4.99N/A (N/A)20,000 .. 50,0000%00:00 (00:00)
8 Unmechanical Aug 8, 2012 $9.99N/A (N/A/74%)100,000 .. 200,0000%00:00 (00:00)
9 Sugar Cube: Bittersweet Factory Nov 7, 2012 $0.69N/A (N/A)20,000 .. 50,0000%00:00 (00:00)
10 Party of Sin Dec 13, 2012 $1.19N/A (N/A)50,000 .. 100,0000%00:00 (00:00)
11 Home Jun 1, 2012 $4.99N/A (N/A/69%)200,000 .. 500,0000%00:00 (00:00)
12 Ultratron Mar 18, 2013 $3.24N/A (N/A)100,000 .. 200,0000%00:00 (00:00)
13 Cargo Commander Nov 1, 2012 $0.59N/A (N/A)100,000 .. 200,0000%00:00 (00:00)
14 Puddle Nov 9, 2012 $7.99N/A (N/A)100,000 .. 200,0000%00:00 (00:00)
15 Retro/Grade Mar 20, 2013 $2.49N/A (N/A)50,000 .. 100,0000%00:00 (00:00)
16 Papo & Yo Apr 18, 2013 $14.99N/A (N/A/70%)200,000 .. 500,0000%00:00 (00:00)
17 Dream Jul 31, 2015 $1.79N/A (N/A/59%)50,000 .. 100,0000%00:00 (00:00)
18 Bad Hotel Oct 16, 2013 $4.99N/A (N/A)50,000 .. 100,0000%00:00 (00:00)
19 Godus Jun 1, 1989 $14.99N/A (N/A)200,000 .. 500,0000%00:00 (00:00)
20 Zack Zero Apr 29, 2013 $2.99N/A (N/A)50,000 .. 100,0000%00:00 (00:00)
21 Element4l May 24, 2013 $8.99N/A (N/A/77%)50,000 .. 100,0000%00:00 (00:00)
22 Intake Nov 5, 2013 $9.99N/A (N/A)20,000 .. 50,0000%00:00 (00:00)
23 Super Puzzle Platformer Deluxe May 24, 2013 $0.79N/A (N/A)20,000 .. 50,0000%00:00 (00:00)
24 Poöf Nov 8, 2013 $6.99N/A (N/A)20,000 .. 50,0000%00:00 (00:00)
25 The Novelist Dec 10, 2013 $0.99N/A (N/A/66%)100,000 .. 200,0000%00:00 (00:00)
26 Omegalodon Mar 9, 2012 $2.49N/A (N/A)20,000 .. 50,0000%00:00 (00:00)
27 Escape Goat Jun 14, 2012 $4.99N/A (N/A)20,000 .. 50,0000%00:00 (00:00)
28 Constant C Mar 7, 2014 $9.99N/A (N/A/60%)0 .. 20,0000%00:00 (00:00)
29 Solar Flux Oct 24, 2013 $9.99N/A (N/A)100,000 .. 200,0000%00:00 (00:00)
30 FOTONICA Nov 6, 2014 $1.49N/A (N/A/71%)50,000 .. 100,0000%00:00 (00:00)
31 Gentlemen! Nov 5, 2013 $1.24N/A (N/A)20,000 .. 50,0000%00:00 (00:00)
32 Escape Goat 2 Mar 24, 2014 $4.99N/A (N/A/76%)50,000 .. 100,00010%01:00 (00:20)
33 Survivor Squad Nov 8, 2013 $0.74N/A (N/A)100,000 .. 200,0000%00:00 (00:00)
34 Montague's Mount Nov 19, 2013 $4.99N/A (N/A/39%)20,000 .. 50,0000%00:00 (00:00)
35 Ballpoint Universe - Infinite Dec 17, 2013 $3.99N/A (N/A)50,000 .. 100,0000%00:00 (00:00)
36 Drifter Mar 4, 2014 $11.99N/A (N/A)0 .. 20,0000%00:00 (00:00)
37 Journal Feb 17, 2014 $1.99N/A (N/A/59%)20,000 .. 50,0000%00:00 (00:00)
38 STARWHAL Sep 29, 2014 $11.99N/A (N/A)50,000 .. 100,0000%00:00 (00:00)
39 Full Bore May 6, 2014 $3.74N/A (N/A/72%)20,000 .. 50,0000%00:00 (00:00)
40 A-Men Jan 25, 2014 $9.99N/A (N/A)0 .. 20,0000%00:00 (00:00)
41 Montas Mar 24, 2014 $9.99N/A (N/A)0 .. 20,0000%00:00 (00:00)
42 Jones On Fire Mar 14, 2013 $0.74N/A (N/A)50,000 .. 100,0000%00:00 (00:00)
43 10 Second Ninja Mar 5, 2014 $1.99N/A (N/A/72%)50,000 .. 100,0000%00:00 (00:00)
44 Labyrinthine Dreams May 26, 2015 $0.51N/A (N/A)50,000 .. 100,0000%00:00 (00:00)
45 Rabbit Hole 3D: Steam Edition Apr 25, 2014 $2.99N/A (N/A)50,000 .. 100,0000%00:00 (00:00)
46 ReignMaker Apr 16, 2014 $14.99N/A (N/A)50,000 .. 100,0000%00:00 (00:00)
47 Autocraft Sep 20, 2017 $2.49N/A (N/A)0 .. 20,0000%00:00 (00:00)
48 Volt Apr 14, 2014 $0.99N/A (N/A)100,000 .. 200,0000%00:00 (00:00)
49 Slip Apr 28, 2014 $0.99N/A (N/A)20,000 .. 50,0000%00:00 (00:00)
50 Vitrum Sep 25, 2012 $1.33N/A (N/A)20,000 .. 50,0000%00:00 (00:00)
51 Three Dead Zed Jul 7, 2014 $5.99N/A (N/A)100,000 .. 200,0000%00:00 (00:00)
52 Uriel's Chasm Sep 12, 2014 $0.54N/A (N/A)200,000 .. 500,0000%00:00 (00:00)
53 Cosmochoria Apr 27, 2015 $2.49N/A (N/A)20,000 .. 50,0000%00:00 (00:00)
54 Arson and Plunder: Unleashed Sep 25, 2015 $0.99N/A (N/A)20,000 .. 50,0000%00:00 (00:00)
55 Road Not Taken Aug 5, 2014 $4.49N/A (N/A/75%)50,000 .. 100,0000%00:00 (00:00)
56 Pivvot Jul 14, 2014 $4.99N/A (N/A)20,000 .. 50,0000%00:00 (00:00)
57 The Promised Land Jul 11, 2012 $0.69N/A (N/A)20,000 .. 50,0000%00:00 (00:00)
58 Captain Forever Remix Jun 3, 2016 $9.99N/A (N/A)20,000 .. 50,0000%00:00 (00:00)
59 Frederic: Resurrection of Music May 16, 2014 $0.53N/A (N/A)100,000 .. 200,0000%00:00 (00:00)
60 Frederic: Evil Strikes Back May 23, 2014 $0.79N/A (N/A)200,000 .. 500,0000%00:00 (00:00)
61 Rhythm Destruction Jun 16, 2014 $4.99N/A (N/A)50,000 .. 100,0000%00:00 (00:00)
62 Boson X Sep 15, 2014 $1.49N/A (N/A)200,000 .. 500,0000%00:00 (00:00)
63 TRISTOY Jan 15, 2015 $1.39N/A (N/A/49%)20,000 .. 50,0000%00:00 (00:00)
64 Concursion Jun 6, 2014 $4.99N/A (N/A/66%)20,000 .. 50,0000%00:00 (00:00)
65 Curses 'N Chaos Aug 18, 2015 $4.99N/A (N/A)20,000 .. 50,0000%00:00 (00:00)
66 Back to Bed Aug 6, 2014 $0.59N/A (N/A)1,000,000 .. 2,000,0000%00:00 (00:00)
67 NEON STRUCT May 20, 2015 $1.79N/A (N/A/62%)50,000 .. 100,0000%00:00 (00:00)
68 OTTTD Aug 6, 2014 $0.79N/A (N/A)20,000 .. 50,0000%00:00 (00:00)
69 The Masterplan Jun 4, 2015 $19.99N/A (N/A/68%)50,000 .. 100,0000%00:00 (00:00)
70 Hangeki Aug 11, 2014 $4.99N/A (N/A)0 .. 20,0000%00:00 (00:00)
71 Squishy the Suicidal Pig Oct 23, 2014 $0.59N/A (N/A)200,000 .. 500,0000%00:00 (00:00)
72 Ninja Pizza Girl Sep 30, 2015 $6.99N/A (N/A/82%)50,000 .. 100,0000%00:00 (00:00)
73 iO Dec 5, 2014 $0.74N/A (N/A)20,000 .. 50,0000%00:00 (00:00)
74 Horizon Shift May 29, 2015 $0.99N/A (N/A)100,000 .. 200,0000%00:00 (00:00)
75 Super Life of Pixel Dec 20, 2018 $9.99N/A (N/A)20,000 .. 50,0000%00:00 (00:00)
76 The Deer God Feb 27, 2015 $14.99N/A (N/A/59%)20,000 .. 50,0000%00:00 (00:00)
77 Pix the Cat Jan 29, 2015 $0.99N/A (N/A/77%)50,000 .. 100,0000%00:00 (00:00)
78 Tulpa Jan 29, 2015 $2.99N/A (N/A)50,000 .. 100,0000%00:00 (00:00)
79 Amphora Nov 12, 2014 $13.99N/A (N/A)0 .. 20,0000%00:00 (00:00)
80 Phoenix Force Nov 13, 2014 $0.49N/A (N/A)100,000 .. 200,0000%00:00 (00:00)
81 Marvin's Mittens Dec 17, 2014 $5.99N/A (N/A)20,000 .. 50,0000%00:00 (00:00)
82 Chronicles of a Dark Lord: Episode 1 Tides of Fate Complete Dec 19, 2014 N/AN/A (N/A)50,000 .. 100,0000%00:00 (00:00)
83 Four Sided Fantasy Aug 30, 2016 $0.99N/A (N/A)50,000 .. 100,0000%00:00 (00:00)
84 Bermuda Mar 17, 2015 $2.99N/A (N/A)20,000 .. 50,0000%00:00 (00:00)
85 Ukrainian Ninja Dec 23, 2014 FreeN/A (N/A)100,000 .. 200,0000%00:00 (00:00)
86 TIMEframe Jul 7, 2015 $5.99N/A (N/A)50,000 .. 100,0000%00:00 (00:00)
87 Tomb of Tyrants Jun 25, 2015 $2.71N/A (N/A)20,000 .. 50,0000%00:00 (00:00)
88 Glorkian Warrior: The Trials Of Glork Mar 24, 2015 $0.59N/A (N/A)20,000 .. 50,0000%00:00 (00:00)
89 Countless Rooms of Death Feb 20, 2014 $0.99N/A (N/A)20,000 .. 50,0000%00:00 (00:00)
90 It came from space and ate our brains Mar 19, 2015 $7.49N/A (N/A)200,000 .. 500,0000%00:00 (00:00)
91 Disillusions Manga Horror Apr 6, 2013 $0.59N/A (N/A)20,000 .. 50,0000%00:00 (00:00)
92 Three Fourths Home: Extended Edition Mar 20, 2015 $0.74N/A (N/A/77%)20,000 .. 50,0000%00:00 (00:00)
93 Porcunipine May 21, 2015 $0.99N/A (N/A)20,000 .. 50,0000%00:00 (00:00)
94 An Octave Higher Mar 27, 2015 $2.39N/A (N/A)20,000 .. 50,0000%00:00 (00:00)
95 Bunker - The Underground Game May 21, 2015 $0.51N/A (N/A/70%)20,000 .. 50,0000%00:00 (00:00)
96 NEO AQUARIUM - The King of Crustaceans - Jun 8, 2015 $1.79N/A (N/A)50,000 .. 100,0000%00:00 (00:00)
97 Reign of Bullets Aug 19, 2015 $4.99N/A (N/A)0 .. 20,0000%00:00 (00:00)
98 Centauri Sector Jun 24, 2015 $4.99N/A (N/A)0 .. 20,0000%00:00 (00:00)
99 Home is Where One Starts... May 12, 2015 $0.59N/A (N/A)20,000 .. 50,0000%00:00 (00:00)
100 Beyond Eyes Aug 11, 2015 N/AN/A (N/A/60%)100,000 .. 200,0000%00:00 (00:00)
101 Inside My Radio May 11, 2015 $0.99N/A (N/A/68%)50,000 .. 100,0000%00:00 (00:00)
102 Canabalt Apr 30, 2015 $0.89N/A (N/A)20,000 .. 50,0000%00:00 (00:00)
103 Hare In The Hat Apr 1, 2015 $1.99N/A (N/A)50,000 .. 100,0000%00:00 (00:00)
104 Spellsworn Mar 13, 2018 FreeN/A (N/A)100,000 .. 200,0000%00:00 (00:00)
105 Luna Sky Oct 2, 2015 $12.99N/A (N/A)50,000 .. 100,0000%00:00 (00:00)
106 Interstellar Rift Sep 24, 2020 $6.79N/A (N/A)50,000 .. 100,0000%00:00 (00:00)
107 BRAWL Aug 13, 2015 $14.99N/A (N/A)0 .. 20,0000%00:00 (00:00)
108 Vernon's Legacy Sep 23, 2016 $11.99N/A (N/A)0 .. 20,0000%00:00 (00:00)
109 Polyball Dec 1, 2017 $14.99N/A (N/A)200,000 .. 500,0000%00:00 (00:00)
110 Treeker: The Lost Glasses Remake May 13, 2015 $2.99N/A (N/A)0 .. 20,0000%00:00 (00:00)
111 Season of 12 Colors Mar 14, 2016 $1.79N/A (N/A)50,000 .. 100,0000%00:00 (00:00)
112 Impossiball Aug 8, 2017 $0.54N/A (N/A)0 .. 20,0000%00:00 (00:00)
113 Pizza Express Jun 25, 2015 $0.69N/A (N/A)20,000 .. 50,0000%00:00 (00:00)
114 Football, Tactics & Glory Jun 1, 2018 $7.49N/A (N/A)200,000 .. 500,0000%00:00 (00:00)
115 The Adventures of Mr. Bobley Jun 30, 2015 $0.99N/A (N/A)50,000 .. 100,0000%00:00 (00:00)
116 Monument Jun 5, 2015 $0.49N/A (N/A)200,000 .. 500,0000%00:00 (00:00)
117 Western Press Apr 21, 2016 $0.54N/A (N/A)20,000 .. 50,0000%00:00 (00:00)
118 Fortify Apr 8, 2016 $4.99N/A (N/A)0 .. 20,0000%00:00 (00:00)
119 Action Alien Jun 26, 2015 $1.19N/A (N/A)100,000 .. 200,0000%00:00 (00:00)
120 8Bit Fiesta - Party Game Sep 30, 2016 FreeN/A (N/A)50,000 .. 100,0000%00:00 (00:00)
121 Mu Complex Oct 23, 2015 $4.49N/A (N/A)0 .. 20,0000%00:00 (00:00)
122 Dead In Bermuda Aug 27, 2015 $2.99N/A (N/A)20,000 .. 50,0000%00:00 (00:00)
123 Aviary Attorney Dec 21, 2015 $14.99N/A (N/A/77%)20,000 .. 50,0000%00:00 (00:00)
124 none Nov 4, 2015 N/AN/A (N/A)20,000 .. 50,0000%00:00 (00:00)
125 Earth Overclocked Dec 4, 2015 $4.99N/A (N/A)20,000 .. 50,0000%00:00 (00:00)
126 Redemption: Eternal Quest Aug 28, 2015 $0.49N/A (N/A)100,000 .. 200,0000%00:00 (00:00)
127 Void Invaders Aug 14, 2015 $0.53N/A (N/A)20,000 .. 50,0000%00:00 (00:00)
128 Blaster Shooter GunGuy! Aug 10, 2015 $0.99N/A (N/A)100,000 .. 200,0000%00:00 (00:00)
129 Shmadow Nov 3, 2015 $1.99N/A (N/A)20,000 .. 50,0000%00:00 (00:00)
130 Moonbase 332 May 20, 2015 $4.99N/A (N/A)20,000 .. 50,0000%00:00 (00:00)
131 Kitchen Simulator 2015 Sep 2, 2015 $0.49N/A (N/A)20,000 .. 50,0000%00:00 (00:00)
132 ChargeShot Sep 18, 2015 $1.99N/A (N/A)20,000 .. 50,0000%00:00 (00:00)
133 1,000 Heads Among the Trees Dec 11, 2015 $4.99N/A (N/A)100,000 .. 200,0000%00:00 (00:00)
134 Timber and Stone Oct 20, 2015 $4.99N/A (N/A)20,000 .. 50,0000%00:00 (00:00)
135 The Purring Quest Nov 12, 2015 $0.99N/A (N/A)100,000 .. 200,0000%00:00 (00:00)
136 Perraw - FPS Clone War Alpha Jan 29, 2016 $0.54N/A (N/A)20,000 .. 50,0000%00:00 (00:00)
137 Morphine Oct 26, 2015 $0.74N/A (N/A)50,000 .. 100,0000%00:00 (00:00)
138 Days Under Custody Nov 23, 2015 $4.99N/A (N/A)20,000 .. 50,0000%00:00 (00:00)
139 Heavy Gear Assault Feb 10, 2017 N/AN/A (N/A)20,000 .. 50,0000%00:00 (00:00)
140 Cosmic Leap Mar 17, 2016 $0.51N/A (N/A)50,000 .. 100,0000%00:00 (00:00)
141 Godus Wars Feb 3, 2016 $14.99N/A (N/A)50,000 .. 100,0000%00:00 (00:00)
142 Bell Ringer Mar 6, 2016 $6.99N/A (N/A)200,000 .. 500,0000%00:00 (00:00)
143 Space Moth DX Jan 22, 2016 $1.24N/A (N/A)20,000 .. 50,0000%00:00 (00:00)
144 PERFECT ANGLE: The puzzle game based on optical illusions Dec 22, 2015 $3.99N/A (N/A)100,000 .. 200,0000%00:00 (00:00)
145 TurnOn Jun 1, 2016 $14.99N/A (N/A/67%)20,000 .. 50,0000%00:00 (00:00)
146 IMSCARED Jan 31, 2016 $1.99N/A (N/A)50,000 .. 100,0000%00:00 (00:00)
147 Doodle Kingdom Jun 9, 2016 $2.24N/A (N/A)50,000 .. 100,0000%00:00 (00:00)
148 Evertown Jan 30, 2020 $1.99N/A (N/A)20,000 .. 50,0000%00:00 (00:00)
149 10 Second Ninja X Jul 19, 2016 $0.99N/A (N/A)200,000 .. 500,0000%00:00 (00:00)
150 Mindless Running Feb 22, 2016 $0.49N/A (N/A)20,000 .. 50,0000%00:00 (00:00)
151 Mimpi Dreams Mar 22, 2016 FreeN/A (N/A)20,000 .. 50,0000%00:00 (00:00)
152 Bunker Punks May 28, 2018 $2.99N/A (N/A)20,000 .. 50,0000%00:00 (00:00)
153 Share May 3, 2016 $0.49N/A (N/A)20,000 .. 50,0000%00:00 (00:00)
154 Cube Land Arena Mar 29, 2016 $0.49N/A (N/A)50,000 .. 100,0000%00:00 (00:00)
155 Hero Quest: Tower Conflict Apr 13, 2016 $0.99N/A (N/A)200,000 .. 500,0000%00:00 (00:00)
156 CrazyCars3D Mar 28, 2016 $2.99N/A (N/A)50,000 .. 100,0000%00:00 (00:00)
157 Mainlining Jan 26, 2017 $1.94N/A (N/A/73%)50,000 .. 100,0000%00:00 (00:00)
158 StarsOne Apr 8, 2016 $4.99N/A (N/A)0 .. 20,0000%00:00 (00:00)
159 OPUS: The Day We Found Earth Apr 21, 2016 $2.24N/A (N/A)20,000 .. 50,0000%00:00 (00:00)
160 Wrath of Anna Apr 2, 2018 $19.99N/A (N/A)50,000 .. 100,0000%00:00 (00:00)
161 Trouble Witches Origin - Episode1 Daughters of Amalgam - Nov 21, 2016 $3.49N/A (N/A)0 .. 20,0000%00:00 (00:00)
162 Moonstone Tavern - A Fantasy Tavern Sim! May 13, 2016 $1.99N/A (N/A)20,000 .. 50,0000%00:00 (00:00)
163 NORTH Apr 27, 2016 $1.09N/A (N/A)200,000 .. 500,0000%00:00 (00:00)
164 New Retro Arcade: Neon Nov 19, 2019 $16.99N/A (N/A)20,000 .. 50,0000%00:00 (00:00)
165 上帝之城 I:监狱帝国 [City of God I - Prison Empire] Jul 9, 2018 $18.99N/A (N/A)100,000 .. 200,0000%00:00 (00:00)
166 Angel Express [Tokkyu Tenshi] Jul 15, 2016 $9.99N/A (N/A)0 .. 20,0000%00:00 (00:00)
167 The Nest Jun 14, 2016 FreeN/A (N/A)0 .. 20,0000%00:00 (00:00)
168 Scanner Sombre Apr 26, 2017 $1.19N/A (N/A/67%)100,000 .. 200,0000%00:00 (00:00)
169 Reflection of Mine Feb 24, 2017 $1.99N/A (N/A)20,000 .. 50,0000%00:00 (00:00)
170 Amulet of Dreams Jun 3, 2016 $6.99N/A (N/A)0 .. 20,0000%00:00 (00:00)
171 Star Drifter Jun 1, 2016 $0.99N/A (N/A)200,000 .. 500,0000%00:00 (00:00)
172 Call Of The Mighty Warriors Mar 1, 2019 $0.49N/A (N/A)50,000 .. 100,0000%00:00 (00:00)
173 Karma Miwa Aug 12, 2016 FreeN/A (N/A)20,000 .. 50,0000%00:00 (00:00)
174 Super Duper Party Pooper Jun 6, 2016 $0.99N/A (N/A/40%)100,000 .. 200,0000%00:00 (00:00)
175 DashBored Jun 13, 2016 $4.99N/A (N/A)50,000 .. 100,0000%00:00 (00:00)
176 You Deserve Aug 19, 2016 $0.99N/A (N/A)20,000 .. 50,0000%00:00 (00:00)
177 Dinosaur Forest May 17, 2017 $0.51N/A (N/A)50,000 .. 100,0000%00:00 (00:00)
178 Wheels of Aurelia Sep 20, 2016 $1.49N/A (N/A/63%)20,000 .. 50,0000%00:00 (00:00)
179 Joana's Life Sep 1, 2016 $0.99N/A (N/A)50,000 .. 100,0000%00:00 (00:00)
180 Intensive Exposure Sep 6, 2016 $1.99N/A (N/A)20,000 .. 50,0000%00:00 (00:00)
181 It Comes Around - A Kinetic Novel Sep 29, 2016 $2.99N/A (N/A)0 .. 20,0000%00:00 (00:00)
182 Starship Annihilator Sep 2, 2016 $0.51N/A (N/A)200,000 .. 500,0000%00:00 (00:00)
183 Please, Don't Touch Anything 3D Dec 7, 2016 $4.99N/A (N/A)100,000 .. 200,00033.33%00:08 (00:08)
184 mr.President Prologue Episode Sep 20, 2016 $0.51N/A (N/A)50,000 .. 100,0000%00:00 (00:00)
185 AIRHEART - Tales of broken Wings Jul 24, 2018 $3.74N/A (N/A/62%)20,000 .. 50,0000%00:00 (00:00)
186 BoomTown! Deluxe Oct 14, 2016 $0.49N/A (N/A)50,000 .. 100,0000%00:00 (00:00)
187 Pixel Gladiator Sep 8, 2017 $0.59N/A (N/A)20,000 .. 50,0000%00:00 (00:00)
188 Snake Pass Mar 28, 2017 $4.99N/A (N/A/71%)200,000 .. 500,0000%00:00 (00:00)
189 Wayout Nov 4, 2016 $0.56N/A (N/A)50,000 .. 100,0000%00:00 (00:00)
190 Zolg Dec 2, 2016 $0.51N/A (N/A)50,000 .. 100,0000%00:00 (00:00)
191 99Vidas Dec 22, 2016 $1.29N/A (N/A/69%)50,000 .. 100,0000%00:00 (00:00)
192 Witch It Oct 22, 2020 $4.99N/A (N/A)500,000 .. 1,000,0002.48%01:50 (01:13)
193 Introvert Quest Mar 15, 2017 $0.5N/A (N/A)100,000 .. 200,0000%00:00 (00:00)
194 Mistwood Heroes Dec 30, 2016 $0.51N/A (N/A)50,000 .. 100,0000%00:00 (00:00)
195 Project LUX Feb 2, 2018 $7.49N/A (N/A)0 .. 20,0000%00:00 (00:00)
196 Three Kingdoms The Last Warlord Feb 2021 $19.99N/A (N/A)50,000 .. 100,0000%00:00 (00:00)
197 GORN Jul 18, 2019 $12.99N/A (N/A/85%)200,000 .. 500,0000%00:00 (00:00)
198 Monolith Jun 7, 2017 $3.99N/A (N/A/83%)100,000 .. 200,0000%00:00 (00:00)
199 Guns of Icarus Alliance Mar 31, 2017 $4.99N/A (N/A)100,000 .. 200,0000%00:00 (00:00)
200 The Archotek Project Apr 28, 2017 $0.99N/A (N/A)200,000 .. 500,0000%00:00 (00:00)

Tags over time:

Access restricted.

This feature is only available to users with special access rights. Sorry.

If you want to proceed, you need to register or log in first and then back Steam Spy on Patreon. Look for Indie or Pro pledge.

Don't forget to use the same email as on Steam Spy!

If you've recently backed Steam Spy on Patreon, please note, that it might take around 15 minutes for your access rights to sync. In most cases you'll need to re-login on Steam Spy too.

Owners of this game also own:

Access restricted.

This feature is only available to users with special access rights. Sorry.

If you want to proceed, you need to register or log in first and then back Steam Spy on Patreon. Look for Indie or Pro pledge.

Don't forget to use the same email as on Steam Spy!

If you've recently backed Steam Spy on Patreon, please note, that it might take around 15 minutes for your access rights to sync. In most cases you'll need to re-login on Steam Spy too.

Playtime distribution:

Access restricted.

This feature is only available to users with special access rights. Sorry.

If you want to proceed, you need to register or log in first and then back Steam Spy on Patreon. Look for Indie or Pro pledge.

Don't forget to use the same email as on Steam Spy!

If you've recently backed Steam Spy on Patreon, please note, that it might take around 15 minutes for your access rights to sync. In most cases you'll need to re-login on Steam Spy too.

Playtime (2 weeks):

Access restricted.

This feature is only available to users with special access rights. Sorry.

If you want to proceed, you need to register or log in first and then back Steam Spy on Patreon. Look for Indie or Pro pledge.

Don't forget to use the same email as on Steam Spy!

If you've recently backed Steam Spy on Patreon, please note, that it might take around 15 minutes for your access rights to sync. In most cases you'll need to re-login on Steam Spy too.

User reviews:

Login required.

Please register or log in to see this information.